Starlink 31316

operational
NORAD ID: 59090 Int'l Des: 2024-041 Owner: SPXS Country: US Constellation: starlink
LEOCIRCULAR

Über Starlink 31316

Beschreibung wird geladen...

Live-Position

3D-Globus wird geladen...

Nächste Überflüge

Höhenverlauf

Altitude vs Time

uPlot chart will show altitude changes over time

Zweizeiliger Elementsatz

1 59090U 24041S 25258.13088910 .00005085 00000-0 19416-3 0 9998
2 59090 43.0003 175.3439 0001278 273.9509 86.1197 15.27581034 87902
Epoch: 15. Sept. 2025 • Age: 11 hours

Aktueller Status

Höhe 495.2 km
Geschwindigkeit 7.62 km/s
Subsatellitenpunkt -42.29°S, 131.33°W
Startdatum 29. Feb. 2024
Alter 1.5 years
Typ internet

Technische Details

Klassifizierung Payload
Masse 730.00 kg
Trockenmasse 700.00 kg
Gesamtmasse 730.00 kg
Länge 0.30 m
Durchmesser 4.10 m
Spannweite 29.00 m
Form Box + pan
Hersteller SPXS
Bus-Typ Starlink V2M
Phasenstatus In Orbit
Besitzer/Staat SPXS/US

Große Konstellationen

Loading constellations...